Location: ????????
(55.0808°N, 38.5463°E)
Time: 02:41:53
(UTC+00:00)

Nimbus 3 Rocket - Pass Details

Date: 26 September 2024
Orbit: 1072 x 1131 km, 99.9° (Epoch: 03 October)

Event Time Altitude Azimuth Distance (km) Brightness Sun altitude
Rises 01:28:00 0° 23° (NNE) 3,918 8.9 -16.4°
Reaches altitude 10° 01:33:22 10° 347° (NNW) 2,943 7.6 -15.7°
Maximum altitude 01:34:27 10° 338° (NNW) 2,907 7.5 -15.5°
Drops below altitude 10° 01:35:31 10° 328° (NNW) 2,936 7.4 -15.4°
Enters shadow 01:39:14 - 301° (WNW) 3,481 7.5 -14.9°
